If you wish to contribute or participate in the discussions about articles you are invited to join SKYbrary as a registered user

 Actions

Allen Army Airfield

From SKYbrary Wiki

PABI
Airport
ICAO: PABI – IATA: BIG
Summary
Name Allen Army Airfield
Region North America
Territory Alaska US.gif
Location Delta Junction, Alaska
Serving Fort Greely
Elevation 393.497 m <br />1,291 ft <br />1,291 ft393.497 m <br />
Type medium airport
Coordinates 63° 59' 40.37" N, 145° 43' 17.91" W
Runways
Designator Length Width Surface ROPS
1/19 2743 m8,999.344 ft <br /> 46 m150.919 ft <br /> ASPH-G /
7/25 1426 m4,678.478 ft <br /> 50 m164.042 ft <br /> ASPH-G /
10/28 1864 m6,115.486 ft <br /> 46 m150.919 ft <br /> ASPH-G /


METAR
Observation PABI 141053Z AUTO 00000KT 10SM CLR 08/06 A2993 RMK AO2 SLP139 T00780056 TSNO
Station Delta Junction/Ft Greely, Allen Army Airfield
Date/Time 14 June 2021 10:53:00
Wind direction
Wind speed 00 kts
Lowest cloud amount n/a
Temperature 7.8°C
Dew point 5.6°C
Humidity 85%
QNH hPa
Weather condition n/a

Maps

Terrain

Loading map...

Airport Layout

Loading map...


Accidents & Serious Incidents at or in vicinity of PABI

None on SKYbrary